Location: Neuvy Saint Sepulchre
(46.5953°N, 1.8122°E)
Time: 08:08:34
(UTC+02:00)

ISS - Pass Details

Date: 22 March 2019
Orbit: 408 x 410 km, 51.6° (Epoch: 22 April)

Event Time Altitude Azimuth Distance (km) Brightness Sun altitude
Rises 19:30:27 0° 193° (SSW) 2,322 0.1 -4.7°
Reaches altitude 10° 19:33:18 10° 166° (SSE) 1,466 -1.2 -5.2°
Maximum altitude 19:35:01 14° 134° (SE) 1,271 -1.8 -5.5°
Drops below altitude 10° 19:36:44 10° 103° (ESE) 1,471 -1.7 -5.8°
Enters shadow 19:37:27 - 93° (E) 1,646 -1.4 -5.9°
